ITY98 KDCA-KLGA

Flight info

Callsign ITY98
Flight time 0h 54m
Altitude 27000
Route DOCTR5 AGARD SPEAK PROUD2
Aircraft A320/M-SDE3FGHIRWY/LB1

Departure

Time 2026-04-22 10:08
Airport Ronald Reagan Washington National Airport (KDCA)

Arrival

Time 2026-04-22 11:02
Airport LaGuardia Airport (KLGA)
Time Latitude Longitude Altitude Speed Heading
2026-04-22 09:41 38.85172 -77.04057 25 ft 0 kts 299°
2026-04-22 09:58 38.85165 -77.04042 40 ft 4 kts 308°
2026-04-22 09:58 38.85149 -77.04014 19 ft 4 kts 305°
2026-04-22 09:58 38.85132 -77.03987 23 ft 4 kts 319°
2026-04-22 09:59 38.85111 -77.03972 22 ft 2 kts 355°
2026-04-22 09:59 38.85109 -77.03972 21 ft 0 kts 355°
2026-04-22 10:02 38.85129 -77.03974 21 ft 9 kts 355°
2026-04-22 10:03 38.85231 -77.03984 22 ft 19 kts 355°
2026-04-22 10:03 38.85329 -77.03993 23 ft 23 kts 356°
2026-04-22 10:03 38.85499 -77.04015 29 ft 26 kts 347°
2026-04-22 10:03 38.85685 -77.04048 29 ft 18 kts 341°
2026-04-22 10:04 38.85743 -77.04119 30 ft 19 kts 333°
2026-04-22 10:04 38.85828 -77.04199 28 ft 15 kts 316°
2026-04-22 10:04 38.85876 -77.04237 28 ft 1 kts 340°
2026-04-22 10:04 38.85910 -77.04226 28 ft 9 kts 34°
2026-04-22 10:05 38.85925 -77.04180 27 ft 9 kts 75°
2026-04-22 10:05 38.85934 -77.04095 26 ft 13 kts 78°
2026-04-22 10:05 38.86022 -77.03981 28 ft 25 kts 26°
2026-04-22 10:05 38.86061 -77.03891 23 ft 8 kts 125°
2026-04-22 10:06 38.86027 -77.03864 27 ft 0 kts 172°
2026-04-22 10:06 38.86014 -77.03862 24 ft 1 kts 174°
2026-04-22 10:06 38.86012 -77.03862 24 ft 0 kts 174°
2026-04-22 10:07 38.85777 -77.03839 27 ft 74 kts 175°
2026-04-22 10:07 38.85026 -77.03765 24 ft 137 kts 176°
2026-04-22 10:07 38.83957 -77.03654 307 ft 167 kts 174°
2026-04-22 10:08 38.82809 -77.03481 1129 ft 164 kts 176°
2026-04-22 10:08 38.81641 -77.03247 1779 ft 178 kts 178°
2026-04-22 10:08 38.80324 -77.02973 2236 ft 204 kts 176°
2026-04-22 10:08 38.78859 -77.02658 2738 ft 228 kts 175°
2026-04-22 10:09 38.77225 -77.02294 3392 ft 246 kts 172°
2026-04-22 10:09 38.75639 -77.01305 4140 ft 267 kts 138°
2026-04-22 10:09 38.74639 -76.99202 4707 ft 291 kts 103°
2026-04-22 10:09 38.74431 -76.96595 5524 ft 297 kts 81°
2026-04-22 10:10 38.75058 -76.94132 6447 ft 290 kts 53°
2026-04-22 10:10 38.76214 -76.92032 7408 ft 288 kts 44°
2026-04-22 10:10 38.77586 -76.90188 8322 ft 289 kts 36°
2026-04-22 10:10 38.79222 -76.88669 9244 ft 290 kts 27°
2026-04-22 10:11 38.80953 -76.87273 10134 ft 296 kts 27°
2026-04-22 10:11 38.82757 -76.85851 10552 ft 319 kts 27°
2026-04-22 10:11 38.84679 -76.84207 10906 ft 345 kts 35°
2026-04-22 10:11 38.86420 -76.81976 11516 ft 360 kts 48°
2026-04-22 10:12 38.87804 -76.79232 12251 ft 371 kts 61°
2026-04-22 10:12 38.88932 -76.76218 13016 ft 377 kts 63°
2026-04-22 10:12 38.90075 -76.73161 13766 ft 383 kts 63°
2026-04-22 10:12 38.91241 -76.70049 14445 ft 389 kts 62°
2026-04-22 10:13 38.92422 -76.66900 15146 ft 394 kts 62°
2026-04-22 10:13 38.93606 -76.63741 15825 ft 399 kts 62°
2026-04-22 10:13 38.94821 -76.60467 16520 ft 404 kts 62°
2026-04-22 10:13 38.95959 -76.57184 17184 ft 409 kts 64°
2026-04-22 10:14 38.97068 -76.53782 17856 ft 414 kts 64°
2026-04-22 10:14 38.98166 -76.50327 18508 ft 419 kts 64°
2026-04-22 10:14 38.99268 -76.46838 19100 ft 422 kts 64°
2026-04-22 10:14 39.00367 -76.43316 19729 ft 425 kts 66°
2026-04-22 10:15 39.01136 -76.39659 20350 ft 432 kts 76°
2026-04-22 10:15 39.01535 -76.35811 20960 ft 435 kts 79°
2026-04-22 10:15 39.01908 -76.31932 21582 ft 437 kts 79°
2026-04-22 10:15 39.02290 -76.28030 22185 ft 439 kts 79°
2026-04-22 10:16 39.02679 -76.24121 22762 ft 442 kts 79°
2026-04-22 10:16 39.03065 -76.20240 23322 ft 444 kts 79°
2026-04-22 10:16 39.03456 -76.16280 23859 ft 446 kts 78°
2026-04-22 10:16 39.03842 -76.12305 24334 ft 449 kts 78°
2026-04-22 10:17 39.04230 -76.08294 24774 ft 452 kts 78°
2026-04-22 10:17 39.04577 -76.04255 25222 ft 455 kts 80°
2026-04-22 10:17 39.04823 -76.00179 25656 ft 459 kts 82°
2026-04-22 10:17 39.04995 -75.96112 26078 ft 462 kts 83°
2026-04-22 10:18 39.05131 -75.91967 26509 ft 465 kts 83°
2026-04-22 10:18 39.05261 -75.87795 26927 ft 467 kts 83°
2026-04-22 10:18 39.05407 -75.83604 27125 ft 468 kts 83°
2026-04-22 10:18 39.05752 -75.79542 27162 ft 455 kts 72°
2026-04-22 10:19 39.06715 -75.75729 27167 ft 443 kts 59°
2026-04-22 10:19 39.08171 -75.72281 27158 ft 434 kts 50°
2026-04-22 10:19 39.09983 -75.69211 27157 ft 426 kts 41°
2026-04-22 10:19 39.12023 -75.66454 27156 ft 424 kts 39°
2026-04-22 10:20 39.14051 -75.63752 27168 ft 424 kts 39°
2026-04-22 10:20 39.16107 -75.61008 27157 ft 425 kts 39°
2026-04-22 10:20 39.18163 -75.58260 27157 ft 426 kts 39°
2026-04-22 10:20 39.20216 -75.55514 27157 ft 426 kts 39°
2026-04-22 10:21 39.22290 -75.52761 27154 ft 424 kts 37°
2026-04-22 10:21 39.24516 -75.50383 27157 ft 415 kts 27°
2026-04-22 10:21 39.26913 -75.48278 27158 ft 415 kts 27°
2026-04-22 10:21 39.29303 -75.46175 27158 ft 415 kts 27°
2026-04-22 10:22 39.31700 -75.44057 27164 ft 420 kts 27°
2026-04-22 10:22 39.34126 -75.41909 27189 ft 425 kts 27°
2026-04-22 10:22 39.36576 -75.39732 27169 ft 428 kts 27°
2026-04-22 10:22 39.39005 -75.37567 27180 ft 429 kts 27°
2026-04-22 10:23 39.41466 -75.35366 26933 ft 428 kts 28°
2026-04-22 10:23 39.43935 -75.33160 25880 ft 434 kts 28°
2026-04-22 10:23 39.46425 -75.30936 25082 ft 434 kts 28°
2026-04-22 10:23 39.48874 -75.28747 24384 ft 431 kts 28°
2026-04-22 10:24 39.51329 -75.26547 23714 ft 428 kts 28°
2026-04-22 10:24 39.53756 -75.24327 22963 ft 426 kts 29°
2026-04-22 10:24 39.56163 -75.22083 22195 ft 424 kts 30°
2026-04-22 10:24 39.58541 -75.19838 21510 ft 421 kts 30°
2026-04-22 10:25 39.60907 -75.17593 20853 ft 418 kts 30°
2026-04-22 10:25 39.63215 -75.15399 20226 ft 415 kts 30°
2026-04-22 10:25 39.65540 -75.13191 19605 ft 412 kts 30°
2026-04-22 10:25 39.67838 -75.11026 19272 ft 401 kts 29°
2026-04-22 10:26 39.70093 -75.08985 19167 ft 388 kts 27°
2026-04-22 10:26 39.72335 -75.07048 19189 ft 385 kts 26°
2026-04-22 10:26 39.74561 -75.05172 19192 ft 385 kts 26°
2026-04-22 10:26 39.76817 -75.03282 19190 ft 384 kts 26°
2026-04-22 10:27 39.79069 -75.01386 19189 ft 385 kts 26°
2026-04-22 10:27 39.81313 -74.99481 19202 ft 385 kts 27°
2026-04-22 10:27 39.83544 -74.97568 19201 ft 385 kts 27°
2026-04-22 10:27 39.85758 -74.95647 19201 ft 385 kts 27°
2026-04-22 10:28 39.87979 -74.93665 19202 ft 386 kts 28°
2026-04-22 10:28 39.90190 -74.91650 19201 ft 386 kts 28°
2026-04-22 10:28 39.92335 -74.89522 19208 ft 392 kts 36°
2026-04-22 10:28 39.94196 -74.86950 19201 ft 393 kts 42°
2026-04-22 10:29 39.95984 -74.84352 19199 ft 376 kts 41°
2026-04-22 10:29 39.97701 -74.81868 19200 ft 360 kts 41°
2026-04-22 10:29 39.99377 -74.79463 19202 ft 355 kts 40°
2026-04-22 10:29 40.01022 -74.77120 19202 ft 353 kts 40°
2026-04-22 10:30 40.02685 -74.74757 19202 ft 353 kts 40°
2026-04-22 10:30 40.04347 -74.72395 19202 ft 353 kts 40°
2026-04-22 10:30 40.06007 -74.70028 19201 ft 353 kts 40°
2026-04-22 10:30 40.07664 -74.67651 19202 ft 353 kts 41°
2026-04-22 10:31 40.09313 -74.65277 19186 ft 353 kts 41°
2026-04-22 10:31 40.10945 -74.62928 19198 ft 353 kts 40°
2026-04-22 10:31 40.12596 -74.60553 19190 ft 353 kts 40°
2026-04-22 10:31 40.14248 -74.58174 19187 ft 352 kts 40°
2026-04-22 10:32 40.15904 -74.55786 19188 ft 352 kts 40°
2026-04-22 10:32 40.17552 -74.53402 19189 ft 353 kts 41°
2026-04-22 10:32 40.19177 -74.51045 19190 ft 353 kts 41°
2026-04-22 10:32 40.20831 -74.48681 19200 ft 352 kts 39°
2026-04-22 10:33 40.22556 -74.46397 19193 ft 350 kts 37°
2026-04-22 10:33 40.24315 -74.44186 18770 ft 349 kts 36°
2026-04-22 10:33 40.26055 -74.42047 18040 ft 347 kts 36°
2026-04-22 10:33 40.27808 -74.39893 17274 ft 344 kts 36°
2026-04-22 10:34 40.29554 -74.37733 16858 ft 343 kts 37°
2026-04-22 10:34 40.31268 -74.35587 16344 ft 337 kts 38°
2026-04-22 10:34 40.32951 -74.33461 15673 ft 334 kts 38°
2026-04-22 10:34 40.34594 -74.31376 15052 ft 330 kts 39°
2026-04-22 10:35 40.36235 -74.29289 14441 ft 326 kts 39°
2026-04-22 10:35 40.37856 -74.27227 13814 ft 322 kts 39°
2026-04-22 10:35 40.39461 -74.25186 13111 ft 319 kts 39°
2026-04-22 10:35 40.41057 -74.23157 12400 ft 317 kts 39°
2026-04-22 10:36 40.42616 -74.21173 11704 ft 315 kts 39°
2026-04-22 10:36 40.44197 -74.19166 11127 ft 317 kts 39°
2026-04-22 10:36 40.45777 -74.17160 10775 ft 315 kts 39°
2026-04-22 10:36 40.47347 -74.15161 10410 ft 314 kts 39°
2026-04-22 10:37 40.48909 -74.13171 9866 ft 310 kts 39°
2026-04-22 10:37 40.52002 -74.09327 8475 ft 302 kts 32°
2026-04-22 10:37 40.53729 -74.07818 7778 ft 297 kts 27°
2026-04-22 10:38 40.55462 -74.06356 7108 ft 295 kts 27°
2026-04-22 10:38 40.57179 -74.04903 6473 ft 292 kts 28°
2026-04-22 10:38 40.58888 -74.03454 5738 ft 292 kts 28°
2026-04-22 10:38 40.60598 -74.02003 5014 ft 292 kts 29°
2026-04-22 10:39 40.62299 -74.00558 4438 ft 287 kts 30°
2026-04-22 10:39 40.64078 -73.99536 4328 ft 281 kts
2026-04-22 10:39 40.66026 -73.99434 4179 ft 280 kts 351°
2026-04-22 10:39 40.67947 -73.99769 4014 ft 276 kts 345°
2026-04-22 10:40 40.69777 -74.00242 3850 ft 256 kts 343°
2026-04-22 10:40 40.71472 -74.00702 3489 ft 251 kts 343°
2026-04-22 10:40 40.73158 -74.01143 3371 ft 235 kts 344°
2026-04-22 10:40 40.74710 -74.01518 3230 ft 219 kts 344°
2026-04-22 10:41 40.76174 -74.01856 3122 ft 204 kts 345°
2026-04-22 10:41 40.77495 -74.02148 2991 ft 187 kts 345°
2026-04-22 10:41 40.78729 -74.02416 2852 ft 172 kts 345°
2026-04-22 10:41 40.79873 -74.02659 2732 ft 162 kts 345°
2026-04-22 10:42 40.80986 -74.02853 2799 ft 163 kts 356°
2026-04-22 10:42 40.82091 -74.02503 2835 ft 165 kts 28°
2026-04-22 10:42 40.82952 -74.01542 2855 ft 159 kts 60°
2026-04-22 10:42 40.83384 -74.00267 2692 ft 151 kts 88°
2026-04-22 10:43 40.83369 -73.98929 2289 ft 142 kts 114°
2026-04-22 10:43 40.82973 -73.97814 1978 ft 128 kts 132°
2026-04-22 10:43 40.82508 -73.96834 1764 ft 123 kts 133°
2026-04-22 10:43 40.82053 -73.95876 1565 ft 122 kts 132°
2026-04-22 10:44 40.81602 -73.94930 1376 ft 122 kts 131°
2026-04-22 10:44 40.81150 -73.93981 1197 ft 122 kts 130°
2026-04-22 10:44 40.80700 -73.93036 1021 ft 121 kts 129°
2026-04-22 10:44 40.80252 -73.92097 834 ft 123 kts 128°
2026-04-22 10:45 40.79795 -73.91138 662 ft 123 kts 126°
2026-04-22 10:45 40.79336 -73.90174 483 ft 125 kts 127°
2026-04-22 10:45 40.78959 -73.89383 352 ft 126 kts 126°
2026-04-22 10:45 40.78490 -73.88401 169 ft 126 kts 125°
2026-04-22 10:46 40.78029 -73.87431 21 ft 124 kts 127°
2026-04-22 10:46 40.77564 -73.86477 198 ft 136 kts 127°
2026-04-22 10:46 40.77006 -73.85320 852 ft 155 kts 127°
2026-04-22 10:46 40.76357 -73.83995 1107 ft 188 kts 128°
2026-04-22 10:47 40.75661 -73.82557 1040 ft 188 kts 127°
2026-04-22 10:47 40.74953 -73.81105 1027 ft 188 kts 127°
2026-04-22 10:47 40.74265 -73.79634 1034 ft 190 kts 118°
2026-04-22 10:47 40.74067 -73.77917 1038 ft 201 kts 86°
2026-04-22 10:48 40.74711 -73.76237 1040 ft 215 kts 47°
2026-04-22 10:48 40.76064 -73.75397 1036 ft 220 kts
2026-04-22 10:48 40.77542 -73.75820 1042 ft 219 kts 328°
2026-04-22 10:48 40.78346 -73.76594 1057 ft 214 kts 308°
2026-04-22 10:49 40.79240 -73.78826 1050 ft 207 kts 282°
2026-04-22 10:49 40.79711 -73.80622 1044 ft 208 kts 283°
2026-04-22 10:49 40.80032 -73.81841 1347 ft 212 kts 282°
2026-04-22 10:49 40.80524 -73.83680 1919 ft 212 kts 282°
2026-04-22 10:50 40.81014 -73.85508 2028 ft 209 kts 282°
2026-04-22 10:50 40.81497 -73.87317 2040 ft 208 kts 282°
2026-04-22 10:50 40.81977 -73.89117 2038 ft 207 kts 281°
2026-04-22 10:50 40.82454 -73.90907 2039 ft 206 kts 282°
2026-04-22 10:51 40.82928 -73.92692 2038 ft 206 kts 281°
2026-04-22 10:51 40.83395 -73.94463 2038 ft 206 kts 281°
2026-04-22 10:51 40.83867 -73.96249 2038 ft 206 kts 281°
2026-04-22 10:51 40.84325 -73.98043 2037 ft 204 kts 276°
2026-04-22 10:52 40.84198 -73.99766 2040 ft 184 kts 231°
2026-04-22 10:52 40.83208 -74.00646 2055 ft 175 kts 184°
2026-04-22 10:52 40.82081 -74.00110 2026 ft 184 kts 137°
2026-04-22 10:52 40.81495 -73.98570 2040 ft 196 kts 116°
2026-04-22 10:53 40.81041 -73.96871 2046 ft 195 kts 116°
2026-04-22 10:53 40.80592 -73.95171 2054 ft 196 kts 116°
2026-04-22 10:53 40.80258 -73.93483 1558 ft 188 kts 105°
2026-04-22 10:53 40.80031 -73.91836 828 ft 173 kts 116°
2026-04-22 10:54 40.79452 -73.90505 497 ft 170 kts 124°
2026-04-22 10:54 40.78825 -73.89157 286 ft 172 kts 123°
2026-04-22 10:54 40.78224 -73.87802 101 ft 169 kts 123°
2026-04-22 10:54 40.77604 -73.86535 25 ft 155 kts 125°
2026-04-22 10:55 40.77032 -73.85328 513 ft 165 kts 124°
2026-04-22 10:55 40.76391 -73.83993 1414 ft 175 kts 128°
2026-04-22 10:55 40.75710 -73.82487 1908 ft 206 kts 127°
2026-04-22 10:55 40.74908 -73.80714 2028 ft 250 kts 126°
2026-04-22 10:56 40.74094 -73.78433 2043 ft 305 kts 109°
2026-04-22 10:56 40.73948 -73.75404 2044 ft 354 kts 91°
2026-04-22 10:56 40.74062 -73.72037 2590 ft 367 kts 91°
2026-04-22 10:56 40.74632 -73.68761 3297 ft 389 kts 57°
2026-04-22 10:57 40.77137 -73.67172 3062 ft 422 kts
2026-04-22 10:57 40.79917 -73.67172 4852 ft 388 kts 354°
2026-04-22 10:57 40.82351 -73.67231 6604 ft 0 kts 353°
2026-04-22 10:57 40.82995 -73.67327 7060 ft 358 kts 348°
2026-04-22 10:58 40.85401 -73.67705 8607 ft 345 kts 347°
2026-04-22 10:58 40.87759 -73.68693 8700 ft 366 kts 328°
2026-04-22 10:58 40.89795 -73.70821 8956 ft 375 kts 311°
2026-04-22 10:58 40.90691 -73.72094 4993 ft 0 kts 311°
2026-04-22 10:59 40.91321 -73.73041 2690 ft 352 kts 307°
2026-04-22 10:59 40.92861 -73.75626 3396 ft 368 kts 296°
2026-04-22 10:59 40.90659 -73.78455 2135 ft 0 kts 288°
2026-04-22 10:59 40.85659 -73.81296 2133 ft 1890 kts 288°
2026-04-22 11:00 40.77195 -73.83989 2139 ft 2676 kts 288°
2026-04-22 11:00 40.74942 -73.81311 1733 ft 356 kts 284°
2026-04-22 11:00 40.75278 -73.82874 2637 ft 310 kts 280°
2026-04-22 11:00 40.75769 -73.85219 4430 ft 222 kts 281°
2026-04-22 11:01 40.74608 -73.79896 1955 ft 0 kts 280°
2026-04-22 11:01 40.74812 -73.81022 1887 ft 172 kts 283°
2026-04-22 11:01 40.75494 -73.82338 1310 ft 180 kts 307°
2026-04-22 11:01 40.76303 -73.83608 574 ft 179 kts 299°
2026-04-22 11:02 40.76878 -73.85009 174 ft 167 kts 296°
2026-04-22 11:02 40.77458 -73.86242 13 ft 142 kts 299°
2026-04-22 11:02 40.77813 -73.86976 17 ft 52 kts 297°
2026-04-22 11:02 40.77817 -73.87232 17 ft 16 kts 205°
2026-04-22 11:03 40.77730 -73.87165 18 ft 15 kts 128°
2026-04-22 11:03 40.77663 -73.87038 15 ft 19 kts 119°
2026-04-22 11:03 40.77576 -73.86856 12 ft 28 kts 123°
2026-04-22 11:03 40.77466 -73.86643 10 ft 29 kts 126°
2026-04-22 11:04 40.77348 -73.86431 11 ft 29 kts 127°
2026-04-22 11:04 40.77253 -73.86207 15 ft 27 kts 118°